Theta_e
327 325 320 325 328 326 328 328 333 335 335 329 328 329 331 330 332 335 335 336 335 335 338 341 342 344 344 341 340 337 333 331 331 330 329 328 329 326 329 329 329 329 329 328 329 331 331 329 329
327 324 323 324 323 328 325 327 331 333 330 328 328 328 330 332 329 334 337 336 335 335 338 342 342 340 340 341 337 334 334 333 331 330 329 329 331 330 330 329 329 328 329 328 328 325 330 328 329
326 323 325 327 324 323 329 329 331 328 329 328 330 328 329 331 329 332 334 335 335 335 336 342 339 341 337 338 334 334 334 334 333 330 331 333 333 333 331 329 329 327 326 327 327 326 327 328 328
325 325 325 327 328 323 325 329 325 326 329 328 329 331 329 329 332 334 335 335 335 335 337 342 340 340 336 336 337 335 335 337 336 333 332 332 334 336 332 329 328 326 327 328 328 327 327 326 326
326 325 327 330 329 324 321 323 322 325 327 328 329 332 331 330 332 332 335 335 335 336 338 339 338 337 338 340 337 336 336 334 335 333 331 332 335 336 335 332 329 329 328 328 327 327 327 327 327
328 326 329 330 330 329 325 323 323 326 328 328 328 328 331 331 333 334 335 334 335 337 337 337 334 335 338 340 336 336 334 332 333 332 330 332 333 334 336 335 331 329 327 327 327 327 328 328 328
328 329 330 328 329 329 328 321 323 326 326 329 326 329 331 330 331 334 336 335 336 337 337 337 337 338 339 336 336 335 333 331 331 333 329 328 330 329 329 330 329 328 328 328 326 328 330 330 330
329 329 330 329 329 328 328 323 322 325 326 326 326 330 331 330 329 333 335 335 336 338 338 337 338 340 342 340 336 335 334 333 331 330 329 323 327 327 327 328 329 329 328 324 325 326 327 329 327
327 329 330 328 328 327 326 326 325 326 327 326 326 326 327 325 329 332 334 335 335 337 338 338 338 339 340 340 341 336 334 333 332 332 331 329 326 329 330 328 327 325 322 322 323 326 326 324 325
329 329 328 327 327 327 326 326 328 328 328 328 328 326 325 324 324 327 329 332 334 335 336 337 338 338 339 339 339 338 338 336 336 334 332 332 327 328 329 328 325 325 323 323 323 325 325 325 327
330 330 327 327 327 326 326 326 327 329 329 329 328 327 326 325 324 324 326 328 331 332 334 335 337 338 339 339 338 338 337 336 334 333 332 331 328 327 328 328 328 328 327 327 327 328 328 328 327
331 328 327 327 327 326 327 326 327 328 329 328 328 328 328 326 324 324 324 326 330 332 332 333 335 337 338 338 338 338 337 336 335 334 333 331 330 329 328 327 328 328 328 328 328 329 329 329 329
330 328 327 327 327 327 327 327 327 328 328 328 328 328 328 327 325 323 323 328 330 332 332 332 332 335 337 338 338 338 337 336 335 334 334 332 331 330 330 329 329 329 329 329 330 330 330 331 330
329 329 328 327 327 327 327 328 327 327 328 328 328 328 327 326 324 323 326 328 330 331 332 332 332 332 335 337 337 337 337 335 335 334 334 333 332 332 332 331 331 331 331 331 330 331 331 330 330
328 330 328 328 328 328 327 329 328 327 327 327 322 322 323 323 323 323 324 324 324 325 324 324 324 328 332 335 337 337 337 335 335 334 333 333 332 332 332 332 332 331 331 330 330 330 329 329 328
328 331 334 329 328 327 328 331 327 327 326 323 322 322 323 323 322 322 322 323 323 324 325 326 324 322 329 333 336 336 335 335 334 333 332 332 331 330 331 331 330 329 329 328 327 326 325 324 323
330 334 333 332 328 328 329 330 326 326 323 323 323 322 323 323 322 321 321 322 322 324 326 327 327 328 330 333 334 333 332 332 331 331 331 331 329 329 330 325 321 321 321 319 316 315 316 316 315
333 333 329 332 328 329 329 328 327 326 325 325 323 323 323 323 322 320 321 321 323 325 327 329 329 330 331 331 331 332 331 326 322 319 317 316 314 314 315 314 313 313 313 312 311 311 311 311 312
327 330 330 329 327 328 329 327 327 325 326 326 324 323 323 323 320 320 320 321 322 325 328 330 330 331 332 332 331 326 321 318 315 313 312 311 311 310 310 310 310 309 310 310 309 309 309 309 308
331 329 329 327 327 326 326 327 327 327 327 327 324 323 323 322 320 320 319 319 319 320 324 327 329 331 330 326 323 320 318 315 313 312 310 309 307 306 306 306 306 306 306 306 305 304 304 304 304
330 330 327 328 327 325 327 330 329 328 328 325 323 323 323 321 320 319 319 318 318 318 319 320 320 320 319 319 318 316 315 314 312 310 308 306 305 302 302 302 301 302 301 301 301 300 301 302 302
333 327 327 328 330 332 328 331 328 328 323 321 321 323 323 321 320 319 319 318 318 317 317 316 317 317 317 317 316 316 313 311 309 308 307 305 303 300 298 298 298 299 298 298 298 298 298 299 301
330 327 327 329 331 332 332 333 329 328 326 324 322 323 322 321 319 319 319 317 317 317 315 314 313 313 313 312 312 311 309 308 307 306 305 303 301 299 297 296 296 296 296 296 296 296 297 298 299
328 328 329 328 329 333 330 331 329 328 325 324 322 322 321 320 319 318 317 316 316 315 314 312 311 310 309 309 308 308 307 306 305 303 302 300 299 298 296 295 295 295 294 294 294 294 295 296 297
330 331 335 335 336 331 327 330 329 322 321 322 322 322 321 320 319 318 317 316 315 314 312 310 309 308 306 306 305 304 303 302 300 300 299 298 297 296 294 294 293 293 293 293 293 293 293 294 294
329 331 330 331 331 329 324 328 327 322 320 321 321 321 320 320 319 317 317 316 315 313 311 309 307 306 304 303 302 301 300 299 298 296 296 295 294 293 292 292 292 292 292 292 292 292 292 292 292
327 332 325 328 327 330 328 327 322 321 320 319 321 321 321 320 319 318 317 316 314 312 311 309 306 304 302 301 300 298 297 296 296 295 294 293 293 292 291 291 291 291 291 291 291 291 291 291 291
328 328 330 328 331 331 329 327 327 323 322 320 320 322 321 320 319 318 317 315 313 311 309 307 305 303 301 299 298 297 295 294 294 293 292 292 291 291 291 290 290 290 290 290 290 290 290 290 290
329 331 329 328 328 331 331 328 324 322 320 320 320 321 321 320 319 317 316 314 311 309 308 306 303 301 300 298 297 296 294 293 293 292 291 291 290 290 290 290 289 289 289 289 289 289 289 289 289
326 329 328 330 329 327 326 326 319 320 320 319 320 320 321 320 318 317 316 313 310 309 306 305 303 301 299 297 295 294 293 293 292 291 290 290 290 289 289 289 289 289 289 289 288 288 288 288 289
Wind_Speed
16 15 12 6 5 6 12 11 4 5 4 4 8 9 10 11 8 4 4 6 5 8 11 13 14 14 10 9 12 7 4 3 3 3 2 1 1 3 3 4 3 3 4 4 5 7 7 4 3
15 14 6 3 5 9 10 10 9 2 7 10 9 7 6 1 5 8 6 6 6 8 10 12 14 11 9 9 5 4 4 3 3 3 2 1 2 2 2 1 2 3 4 4 6 6 6 4 5
15 10 7 4 4 10 7 3 5 8 11 5 5 3 5 4 7 5 6 8 7 8 9 10 13 12 8 8 5 5 3 2 3 2 3 2 4 5 4 4 1 3 4 5 4 5 5 6 7
8 6 5 8 12 5 10 6 6 9 5 2 7 9 5 9 4 6 6 7 8 8 9 9 13 11 10 8 6 5 3 3 3 2 4 5 5 6 6 3 1 3 6 5 5 5 5 7 7
10 6 9 11 11 5 7 7 6 7 7 9 6 4 3 7 5 4 5 6 7 8 8 9 14 11 9 8 8 4 3 2 3 2 3 3 7 8 7 6 3 5 7 5 7 7 7 8 7
6 4 11 12 12 5 7 6 7 8 6 7 5 9 4 9 7 3 5 5 5 8 8 9 13 13 9 9 7 5 4 2 2 3 4 4 7 3 6 5 5 6 8 7 7 8 10 10 9
11 10 15 17 14 10 8 1 9 6 10 4 8 7 8 12 8 2 4 5 6 8 9 8 10 11 10 9 7 6 5 4 3 4 4 7 6 4 5 3 5 7 7 10 10 9 10 11 10
8 11 19 16 12 16 3 4 4 9 10 8 2 4 4 9 7 3 3 5 6 7 9 9 10 10 11 10 10 9 7 4 4 5 5 6 9 8 9 9 11 10 12 13 13 11 11 12 14
8 11 14 19 16 12 3 8 5 5 12 11 9 7 5 5 3 1 2 6 8 8 10 10 10 10 10 9 11 7 8 7 6 8 7 5 6 6 5 7 11 14 13 13 13 13 13 14 16
12 13 21 16 12 12 10 7 9 9 13 12 10 8 7 4 8 6 6 8 10 11 11 11 11 10 10 9 8 7 9 8 8 7 5 5 5 6 6 9 12 12 13 13 13 13 13 14 12
18 20 18 18 11 13 13 12 15 11 15 14 8 10 12 13 13 8 7 7 9 12 11 12 11 11 11 10 9 8 7 7 6 7 6 5 5 5 5 6 6 7 9 8 9 11 11 11 13
22 21 22 20 12 11 15 14 16 16 17 15 14 16 15 12 10 9 9 8 8 9 10 10 12 12 12 11 10 8 7 6 6 5 5 5 5 5 5 6 6 7 7 8 10 11 11 14 15
23 23 20 20 17 14 15 18 18 21 19 19 17 15 15 13 12 12 8 7 6 9 9 10 11 13 12 12 10 9 7 6 6 4 4 4 4 5 5 7 7 8 8 9 11 12 13 15 17
12 24 22 18 18 18 17 19 18 19 18 19 17 16 13 12 9 10 8 6 6 6 6 7 10 12 12 12 10 8 7 5 5 3 3 3 4 5 6 7 8 8 9 10 12 14 16 16 17
21 21 19 24 19 21 18 22 24 21 20 16 16 15 7 6 7 5 3 4 2 1 2 4 7 11 12 11 9 8 6 4 3 2 2 3 4 5 6 7 8 9 10 12 13 14 15 17 17
24 18 18 18 20 20 14 22 16 11 6 9 5 4 4 4 3 2 1 1 2 2 1 2 2 6 10 10 9 7 4 3 2 1 2 3 4 5 6 6 8 10 11 10 11 13 14 15 16
15 18 25 21 23 20 19 19 17 18 8 12 11 8 5 4 3 3 3 4 5 5 5 6 7 8 10 10 8 7 7 6 5 6 7 6 7 7 6 8 8 9 8 9 11 13 14 16 18
21 25 19 23 20 17 20 22 18 16 12 11 11 12 8 7 4 5 6 7 8 9 10 12 13 13 13 13 12 12 13 13 12 13 13 11 12 11 10 9 10 10 9 11 13 15 15 17 19
22 20 22 21 20 17 17 21 20 18 17 15 11 10 10 9 7 7 8 10 12 13 15 15 15 14 15 15 15 14 15 14 15 15 13 13 12 12 12 10 11 12 11 12 14 15 17 17 18
23 22 22 14 15 11 14 17 19 17 18 18 13 13 13 11 10 10 11 12 14 16 16 17 16 15 15 14 15 16 15 15 14 13 12 12 12 13 12 13 12 13 13 13 15 16 16 15 18
26 24 19 16 13 11 13 18 21 19 22 9 11 12 14 14 13 12 13 14 15 16 16 17 17 18 18 18 19 18 16 14 12 10 10 12 12 13 13 13 12 12 13 13 15 15 16 15 16
19 17 16 15 8 8 9 7 12 14 13 12 12 14 15 14 14 12 13 15 15 15 16 17 17 17 15 14 15 14 13 13 10 8 8 8 11 11 13 13 13 12 12 12 13 13 14 15 14
12 22 16 12 8 4 12 6 14 11 15 13 14 15 16 15 14 14 12 16 15 14 15 16 17 17 15 15 15 15 14 11 9 7 7 8 8 10 13 12 12 11 11 11 13 14 15 15 16
9 19 13 7 3 7 13 13 11 12 14 16 14 16 16 16 15 13 15 16 15 13 14 14 16 16 15 16 15 15 13 11 9 9 8 7 8 9 11 11 11 11 12 13 14 15 15 16 16
13 17 6 5 4 6 5 11 13 10 6 7 16 17 18 16 15 14 14 14 15 14 14 14 14 15 14 14 14 13 12 10 10 8 7 8 9 9 11 12 12 12 13 14 15 16 17 17 18
12 17 8 7 9 12 7 7 4 8 4 9 14 17 18 17 15 14 14 15 15 14 13 14 14 14 12 12 12 11 9 8 8 8 8 8 8 9 11 12 13 14 14 15 16 17 17 18 19
7 10 2 3 7 8 8 10 7 5 6 8 15 18 19 18 16 16 14 16 15 14 13 13 13 12 11 10 9 9 9 9 7 7 7 7 8 9 10 12 13 14 15 16 17 18 20 20 21
8 8 7 3 7 5 8 6 6 10 8 10 14 19 18 17 16 15 13 16 15 14 13 12 11 11 10 9 8 7 7 7 6 6 7 7 8 9 11 12 13 15 16 18 19 20 21 22 21
6 3 5 3 2 3 6 4 11 5 3 8 13 18 19 18 16 15 13 16 15 14 13 12 11 10 8 7 7 6 6 6 6 6 7 7 8 9 10 12 14 16 18 20 20 22 23 22 25
10 9 13 6 5 5 4 5 5 4 2 5 12 16 18 17 16 15 14 17 16 15 13 12 10 9 7 6 5 5 5 5 6 6 7 8 9 10 11 13 16 18 19 20 21 23 22 25 26
Wind_Direction
330 324 321 271 257 234 242 228 337 209 205 9 304 290 322 307 337 23 122 116 96 133 151 161 169 173 179 188 179 172 169 152 132 124 117 52 207 332 7 356 20 352 355 357 360 7 22 8 359
320 319 273 293 259 245 234 209 215 210 330 316 282 259 249 15 54 101 139 117 106 134 149 163 170 177 185 178 181 189 172 166 161 179 135 242 235 254 225 182 302 353 334 340 337 325 342 327 331
309 293 282 257 235 267 319 140 357 332 297 308 285 242 314 49 61 66 82 124 122 134 144 167 175 181 181 178 187 174 186 198 178 200 242 295 269 223 218 218 223 337 343 333 339 340 334 317 322
320 252 233 244 258 237 266 300 339 303 305 319 311 275 139 47 30 45 110 123 134 138 144 169 184 180 184 194 199 198 198 196 201 235 258 286 293 251 212 217 255 351 341 346 332 331 327 325 320
260 265 258 254 261 259 259 252 264 301 300 307 333 286 356 56 58 72 127 136 141 140 142 152 169 174 190 207 205 215 209 226 201 249 250 278 318 281 226 218 264 316 338 335 328 320 316 309 313
260 256 258 252 247 193 263 272 263 267 291 294 286 316 74 54 37 69 135 148 145 146 145 155 174 180 195 206 226 234 233 230 213 246 238 279 328 312 256 238 245 327 336 330 321 310 300 303 303
246 256 255 262 275 269 272 14 256 314 279 263 324 273 118 57 37 91 147 157 160 158 157 161 176 189 193 200 224 241 232 228 219 243 259 240 289 322 325 260 292 306 299 304 302 295 296 295 288
264 248 257 253 258 258 214 265 270 281 287 344 286 272 68 42 31 84 159 183 182 178 176 176 178 185 192 207 208 232 243 248 260 256 264 262 248 269 281 271 283 282 291 293 292 289 284 283 283
236 244 242 245 243 256 176 258 277 287 273 280 277 280 39 14 30 48 213 214 211 202 197 191 190 189 194 203 202 200 228 239 246 266 268 281 241 250 247 258 270 277 288 292 291 288 284 279 281
220 227 241 248 255 254 274 258 290 288 279 273 272 235 231 278 307 284 255 232 212 213 209 204 203 198 199 200 200 206 218 222 224 231 235 243 243 249 240 257 285 291 289 295 296 302 304 292 281
221 238 242 248 254 268 275 277 277 276 273 272 279 312 314 316 289 281 258 259 235 218 209 207 207 206 206 206 205 210 207 217 221 235 239 248 257 262 266 271 281 293 304 296 300 294 290 285 287
227 238 241 257 239 242 260 274 280 271 271 287 285 284 292 288 276 283 287 281 230 216 215 214 212 210 211 209 209 210 208 207 213 218 235 245 258 266 278 282 288 290 288 291 293 290 288 287 286
238 237 239 245 256 250 262 266 269 272 278 276 272 274 272 272 280 285 280 272 247 218 216 223 219 216 213 211 212 212 209 205 214 215 236 247 264 280 291 290 291 292 296 292 291 293 295 294 293
230 241 245 232 243 246 255 266 266 266 275 276 283 278 271 262 286 286 255 267 243 220 228 231 225 221 214 209 208 209 208 205 210 215 241 258 268 284 291 293 296 299 298 298 302 302 300 299 299
233 245 236 243 239 255 257 265 259 265 261 279 278 263 258 264 261 261 274 255 277 226 251 247 237 225 212 203 200 202 204 194 199 196 258 272 285 291 301 308 310 314 318 311 312 312 312 311 309
227 242 243 234 228 239 231 258 258 262 224 250 291 266 211 216 234 187 203 186 109 101 47 353 247 202 193 186 181 180 170 157 132 86 13 348 337 329 324 324 336 338 333 331 327 331 329 327 321
224 226 221 240 232 228 210 255 250 247 223 261 265 217 208 170 149 112 108 101 88 79 79 79 101 124 147 150 142 128 115 103 81 67 52 43 41 32 33 31 18 5 1 358 349 339 334 327 322
209 217 217 222 229 209 235 239 250 261 247 260 262 236 197 184 143 110 103 97 91 88 93 92 97 108 119 123 121 113 98 84 77 71 65 60 53 49 50 39 23 13 2 355 348 340 336 330 327
227 207 217 223 214 230 239 247 246 238 248 256 247 218 195 170 141 120 110 105 99 92 92 93 102 111 117 121 117 111 106 98 87 78 68 58 50 42 38 28 15 9 1 354 350 345 339 334 334
248 221 210 208 194 204 245 246 249 241 246 250 233 216 191 158 154 132 122 108 97 95 93 92 94 98 101 106 108 109 105 96 91 83 70 58 49 39 31 24 13 5 358 355 352 349 341 333 337
232 222 216 213 183 226 261 265 255 248 244 242 228 204 181 177 157 145 131 117 106 95 94 93 93 94 98 106 107 105 103 97 84 72 62 50 43 36 29 20 12 3 1 356 351 349 345 332 332
213 222 201 190 194 219 212 273 201 204 195 196 197 189 174 167 157 144 136 122 110 103 101 100 97 96 98 102 101 100 99 94 84 76 59 46 39 32 23 15 9 5 360 356 349 345 340 336 328
221 201 185 189 194 311 219 248 260 204 197 192 198 183 172 165 155 150 136 126 116 111 105 101 98 95 94 97 101 103 102 97 86 71 56 43 28 23 16 11 6 4 359 351 346 341 338 334 328
269 164 157 180 166 230 233 220 260 192 210 195 179 177 167 165 159 147 139 131 121 117 112 109 105 98 94 93 92 93 91 86 77 57 43 27 19 13 9 6 3 357 352 346 342 337 331 324 318
210 145 150 163 195 221 156 208 241 110 112 165 174 172 170 163 160 155 152 142 136 131 123 116 108 100 96 92 88 85 81 77 68 56 35 22 12 6 0 360 356 350 345 341 336 330 323 321 316
192 177 172 161 185 196 141 221 215 98 79 156 173 170 167 168 165 166 158 149 142 138 131 123 114 107 101 94 87 79 75 69 59 42 30 21 9 1 354 351 349 343 338 333 329 322 315 313 313
198 210 71 116 35 162 169 229 155 182 155 176 176 170 171 174 170 168 158 154 148 144 136 129 122 113 105 98 89 79 69 61 50 38 27 14 2 354 349 347 339 333 329 325 322 317 314 314 311
218 186 182 232 153 188 161 199 116 172 157 175 187 176 175 176 170 165 164 157 154 145 138 133 127 121 114 103 91 79 65 54 44 29 19 7 353 350 346 337 331 327 324 323 320 315 313 311 309
162 212 221 280 345 228 165 149 93 94 134 176 189 178 177 175 171 167 166 160 153 151 147 139 134 129 119 106 95 81 62 47 34 20 3 356 349 342 334 330 326 323 321 318 315 313 311 311 309
164 208 221 208 166 265 330 107 143 83 119 183 173 179 174 173 173 170 165 162 163 162 154 150 145 140 127 114 100 79 54 33 19 3 353 348 341 335 329 325 321 317 312 312 311 310 309 312 309